Flag for Saudi Arabia Weather past 2 weeks in Riyadh, Saudi Arabia

Now
81 °F

Clear.


Feels Like: 79 °F
Forecast: 74 / 102 °F
Wind: No wind

Location: King Khaled International Airport

Current Time: Sep 24, 2014 at 1:33:35 AM

Latest Report: Sep 24, 2014 at 1:00 AM


Visibility: 10 mi

Pressure: 29.92 "Hg

Humidity: 16%

Dew point: 30 °F

Location of RiyadhLocation

Historic Weather in Riyadh — Graph

°F

Riyadh temperature yesterday

Maximum temperature yesterday: 100 °F (at 2:00 PM)
Minimum temperature yesterday: 73 °F (at 5:00 AM)
Average temperature yesterday: 88 °F

Past Weeks' High & Low Weather Summary

 TemperatureHumidityPressure
High108 °F (Sep 16, 3:00 PM)32% (Sep 10, 6:00 AM)30.01 "Hg (Sep 10, 6:00 AM)
Low72 °F (Sep 20, 6:00 AM)7% (Sep 16, 5:00 PM)29.74 "Hg (Sep 14, 3:00 PM)
Average92 °F14%29.84 "Hg
* Reported Midnight between Sep 8 and Sep 9 — Midnight between Sep 23 and Sep 24, Riyadh, Weather by CustomWeather, © 2014

Note: Actual official high and low records may vary slightly from our data, if they occured in-between our weather recording intervals... More about our weather records

Advertising

Riyadh weather history for previous 24 hours

 ConditionsComfort  
Time TempWeatherWind HumidityBarometerVisibility
12:00 AM
Sep 24
82 °FClear.No wind15%29.92 "Hg10 mi
11:00 PM
Sep 23
86 °FClear.5 mph15%29.92 "Hg10 mi
10:00 PM84 °FClear.No wind15%29.92 "Hg10 mi
9:00 PM88 °FClear.5 mph13%29.92 "Hg10 mi
8:00 PM90 °FClear.5 mph13%29.89 "Hg10 mi
7:00 PM93 °FClear.6 mph13%29.89 "Hg10 mi
6:00 PM97 °FClear.7 mph12%29.86 "Hg10 mi
5:00 PM99 °FSunny.9 mph10%29.86 "Hg10 mi
4:00 PM99 °FSunny.9 mph10%29.83 "Hg10 mi
3:00 PM100 °FSunny.8 mph9%29.83 "Hg10 mi
2:00 PM100 °FSunny.7 mph10%29.86 "Hg10 mi
1:00 PM99 °FSunny.5 mph10%29.86 "Hg10 mi
12:00 PM99 °FSunny.7 mph11%29.89 "Hg10 mi
11:00 AM99 °FSunny.7 mph11%29.92 "Hg10 mi
10:00 AM93 °FSunny.5 mph15%29.92 "Hg10 mi
9:00 AM91 °FSunny.No wind18%29.92 "Hg10 mi
8:00 AM84 °FSunny.3 mph22%29.92 "Hg10 mi
7:00 AM77 °FSunny.5 mph19%29.89 "Hg10 mi
6:00 AM73 °FSunny.3 mph19%29.86 "Hg10 mi
5:00 AM73 °FClear.3 mph16%29.86 "Hg10 mi
4:00 AM75 °FClear.6 mph15%29.86 "Hg10 mi
3:00 AM77 °FClear.2 mph14%29.83 "Hg10 mi
2:00 AM79 °FClear.3 mph13%29.83 "Hg10 mi
1:00 AM81 °FClear.2 mph14%29.83 "Hg10 mi
Weather by CustomWeather, © 2014

See weather overviewHow to use our weather pages